Weather Roundup
Issued by NWS Corpus Christi, TX

Home | Current Version | Previous Version | Text Only | Print | Product List | Glossary On
Versions: 1 2 3 4 5 6 7 8 9 10 11 12 13 14 15 16 17 18 19 20 21 22 23 24 25 26 27 28 29 30 31 32 33 34 35 36 37 38 39 40 41 42 43 44 45 46 47 48 49 50
000
ASUS44 KCRP 261510
HRRCRP

SOUTH TEXAS REGIONAL WEATHER ROUNDUP
NATIONAL WEATHER SERVICE CORPUS CHRISTI TX
1000 AM CDT SAT JUL 26 2014


TXZ229>244-261600-
...CORPUS CHRISTI AREA OBSERVATIONS...

CITY           SKY/WX    TMP DP  RH WIND       PRES   REMARKS
CORPUS CHRISTI MOSUNNY   88  75  65 S17       30.02F HX  97
NAS CORPUS CHR MOSUNNY   87  78  74 S20       30.03R HX 100
ROCKPORT       PTSUNNY   85  76  74 S13G18    30.04S HX  94
KINGSVILLE NAS SUNNY     90  77  65 S16       30.02S HX 103
ALICE          MOSUNNY   88  75  65 S17G23    30.01S HX  97
FALFURRIAS     PTSUNNY   79  71  75 SE12      30.02R
$$

...VICTORIA AREA OBSERVATIONS...

CITY           SKY/WX    TMP DP  RH WIND       PRES   REMARKS
VICTORIA       PTSUNNY   89  75  63 SW13      30.06R HX  99
BEEVILLE       FAIR      87  75  66 S17       30.03F HX  96
PLEASANTON     SUNNY     85  72  63 SE9       30.05R HX  91
SAN ANTONIO    MOSUNNY   83  72  69 S9G20     30.06R
$$

...LAREDO AREA OBSERVATIONS...

CITY           SKY/WX    TMP DP  RH WIND       PRES   REMARKS
LAREDO         SUNNY     87  73  62 S14       30.03R HX  94
COTULLA        SUNNY     84  71  65 S8        30.02R
DEL RIO        SUNNY     84  69  60 SE16      30.00R
MCALLEN        MOSUNNY   87  75  67 S16G25    30.01R HX  96
HEBBRONVILLE   SUNNY     85  72  63 SE12G20   30.04R HX  91
$$

...OTHER TEXAS OBSERVATIONS...

CITY           SKY/WX    TMP DP  RH WIND       PRES   REMARKS
BROWNSVILLE    MOSUNNY   89  76  65 S18G24    30.02S HX 100
HOUSTON        PTSUNNY   86  75  69 SW8       30.07R HX  95
COL. STATION   MOSUNNY   84  74  71 SW15      30.06S HX  91
AUSTIN         MOSUNNY   85  71  63 S16G22    30.05R HX  90
WACO           SUNNY     87  72  60 S14       30.03S HX  93
FORT WORTH     SUNNY     89  70  53 S12       30.00S HX  94
WICHITA FALLS  SUNNY     87  68  52 S15       29.98R HX  90
LUBBOCK        MOSUNNY   83  62  49 S17       30.08R
EL PASO        SUNNY     82  52  35 SE9       30.08R
$$

...MARINE OBSERVATIONS...

STATION/POSITION TIME  SKY/WX   TEMP    WIND        PRES    VSBY  WAVE   SWELL
                                AIR SEA DIR/SP/G                  HT/PER HT/PER
                 (UTC)          (F)     (DEG/KT/KT) (MB)    (MI)  (FT/S) (FT/S)
PORT ARANSAS     1500            82 84  160/  7/  8 1018.0R
BUOY 90 E PORT A 1500            84 82  180/  8/ 10 1018.4R         3/ 5   2/ 5
BUOY 45 SE BAFFI 1500            83 81  170/ 10/ 12 1017.2R         3/ 5   2/ 5
BUOY 200 E PT IS 1500            85 85  160/  8/  8 1018.7R         2/ 4   2/ 4
BUOY 15 E GALVES 1500            85     210/ 10     1018.2
$$


USA.gov is the U.S. government's official web portal to all federal, state and local government web resources and services.